Regional Weather Roundup
Issued by NWS Sioux Falls, SD

Home | Current Version | Previous Version | Graphics & Text | Print | Product List | Glossary Off
Versions: 1 2 3 4 5 6 7 8 9 10 11 12 13 14 15 16 17 18 19 20 21 22 23 24 25 26 27 28 29 30 31 32 33 34 35 36 37 38 39 40 41 42 43 44 45 46 47 48 49 50

928
ASUS43 KFSD 200610
RWRFSD

WEATHER ROUNDUP FOR SE SOUTH DAKOTA/SW MINNESOTA/NW IOWA
NATIONAL WEATHER SERVICE SIOUX FALLS SD
1200 AM CST FRI JAN 20 2017

NOTE: "FAIR" INDICATES FEW OR NO CLOUDS BELOW 12,000 FEET WITH NO
SIGNIFICANT WEATHER AND OR OBSTRUCTIONS TO VISIBILITY.


SDZ038>040-050-052>070-200700-
SOUTHEAST SOUTH DAKOTA

CITY           SKY/WX    TMP DP  RH WIND       PRES   REMARKS
BROOKINGS      MIX PCPN  35  35 100 SE14      29.56S FOG     WCI  26
CHAMBERLAIN    CLOUDY    39  38  97 S7        29.47S
6HR MIN TEMP:  36; 6HR MAX TEMP:  39;

HURON          CLOUDY    36  36 100 SE13      29.51F
6HR MIN TEMP:  36; 6HR MAX TEMP:  37;

MADISON        CLOUDY    36  36 100 S10         N/A
MITCHELL       CLOUDY    39  38  96 S15       29.54S
6HR MIN TEMP:  39; 6HR MAX TEMP:  40;

SIOUX FALLS    DRIZZLE   37  37 100 S10       29.58F FOG
6HR MIN TEMP:  37; 6HR MAX TEMP:  38; 6HR PCP: TRACE;

WINNER         MOCLDY    36  33  89 S12       29.45F
YANKTON        CLOUDY    37  36  93 SE10      29.57F
$$

MNZ071-072-080-081-089-090-097-098-200700-
SOUTHWEST MINNESOTA

CITY           SKY/WX    TMP DP  RH WIND       PRES   REMARKS
FAIRMONT       LGT RAIN  34  33  96 SE8       29.62F VSB 1/2 WCI  27
JACKSON        FOG       32  32 100 S7        29.59F VSB 1/2 WCI  26
LUVERNE        CLOUDY    34  34 100 S6        29.59F FOG     WCI  29
MARSHALL       FOG       35  34  96 SE6       29.59F VSB 3/4
6HR MIN TEMP:  34; 6HR MAX TEMP:  38;

MONTEVIDEO     CLOUDY    34  34 100 S7        29.62F FOG     WCI  28
PIPESTONE      FOG       36  36 100 S7        29.57F VSB 1/2
REDWOOD FALLS  FOG       34  32  92 SE6       29.60F VSB 1/4 WCI  29
TRACY          CLOUDY    36  36  99 S3        29.59F FOG
WINDOM         SNOW      34  34 100 S5        29.59F VSB 1/4 WCI  30
WORTHINGTON    FOG       34  34 100 S7        29.59S VSB 1/2 WCI  28
$$

IAZ001>003-012>014-020>022-031-032-NEZ013-014-SDZ071-200700-
NORTHWEST IOWA

CITY           SKY/WX    TMP DP  RH WIND       PRES   REMARKS
CHEROKEE       CLOUDY    36  36 100 S3        29.60F FOG
DENISON        FOG       37  37 100 SE5       29.59F VSB 3/4
ESTHERVILLE    FOG       33  33 100 SE7       29.60F VSB 1/4 WCI  27
LE MARS        MIX PCPN  37  37 100 SE8       29.60F VSB 3/4
ORANGE CITY    FOG       36  36 100 S5        29.59F VSB 1/2
SHELDON        FOG       36  36 100 S8        29.58F VSB 1
SIOUX CITY     FOG       39  38  96 SE5       29.60F VSB 1/4
6HR MIN TEMP:  38; 6HR MAX TEMP:  40;

SPENCER        FOG       35  35 100 S7        29.60F VSB 1/2 WCI  29
6HR MIN TEMP:  35; 6HR MAX TEMP:  37;

STORM LAKE     FOG       34  34 100 S7        29.60F VSB 1/4 WCI  28
$$

ABBREVIATIONS USED IN REMARKS
   TC - TEMPERATURE IN CELSIUS
  WCI - WIND CHILL INDEX
   HX - HEAT INDEX
  VSB - VISIBILITY





USA.gov is the U.S. government's official web portal to all federal, state and local government web resources and services.